Location: ????????
(55.0559°N, 39.1270°E)
Time: 07:55:49
(UTC+00:00)

Cosmos 2084 - Pass Details

Date: 15 November 2025
Orbit: 529 x 573 km, 62.8° (Epoch: 14 December)

Event Time Altitude Azimuth Distance (km) Brightness Sun altitude
Exits shadow 03:29:44 18° 299° (WNW) 1,388 4.8 -12.1°
Maximum altitude 03:32:37 57° 226° (SW) 643 3.5 -11.7°
Drops below altitude 10° 03:36:34 10° 147° (SSE) 1,787 6.7 -11.1°
Sets 03:38:46 0° 143° (SE) 2,670 7.8 -10.8°
